Simultaneous Nadir Overpasses (SNOs) Predictions

Prediction of SNOs between GOES-17 and AQUA Satellite Orbit:

Table of predicted SNOs for the next 14.0 days since TLE Epoch: 5/24/2019
Index Date Time (GOES-17) GOES-17 Lat,Lon AQUA Lat,Lon Distance(km) Time Diff (sec)
1 05/26/2019 10:42:58 -0.00,-137.21 0.00,-137.15 5.89 80
2 05/28/2019 10:30:47 -0.01,-137.20 -0.67,-134.21 340.89 80
3 05/28/2019 22:52:11 0.01,-137.17 -0.48,-139.39 252.59 80
4 05/30/2019 22:42:40 0.01,-137.16 0.19,-136.44 82.10 80
5 06/01/2019 22:30:28 0.02,-137.14 0.80,-133.48 415.90 80
6 06/02/2019 10:51:43 -0.02,-137.16 0.28,-138.64 168.06 80
7 06/04/2019 10:36:51 -0.03,-137.13 -0.34,-135.68 164.44 80
8 06/04/2019 22:58:16 0.03,-137.09 -0.75,-140.88 430.54 80
9 06/06/2019 10:24:39 -0.03,-137.09 -0.96,-132.72 496.11 80
10 06/06/2019 22:46:04 0.03,-137.05 -0.12,-137.92 98.98 80




NCC Satellite Simultaneous Nadir Overpasses (SNOs) Prediction Service
